Time,TemperatureF,DewpointF,PressureIn,WindDirection,WindDirectionDegrees,WindSpeedMPH,WindSpeedGustMPH,Humidity,HourlyPrecipIn,Conditions,Clouds,dailyrainin,SoftwareType,DateUTC
2013-02-12 00:01:00,6.0,-1.0,-100.00,WNW,300,13.0,19.0,72,-99.99,,,-99.99,,2013-02-12 07:01:00,
2013-02-12 00:11:00,8.0,0.0,-100.00,West,280,19.0,23.0,71,-99.99,,,-99.99,,2013-02-12 07:11:00,
2013-02-12 00:21:00,8.0,0.0,-100.00,West,280,17.0,25.0,68,-99.99,,,-99.99,,2013-02-12 07:21:00,
2013-02-12 00:31:00,7.0,-1.0,-100.00,WNW,295,16.0,21.0,71,-99.99,,,-99.99,,2013-02-12 07:31:00,
2013-02-12 00:41:00,8.0,1.0,-100.00,WNW,285,18.0,23.0,71,-99.99,,,-99.99,,2013-02-12 07:41:00,
2013-02-12 00:51:00,8.0,1.0,-100.00,WNW,290,19.0,24.0,71,-99.99,,,-99.99,,2013-02-12 07:51:00,
2013-02-12 01:01:00,8.0,0.0,-100.00,WNW,295,17.0,28.0,70,-99.99,,,-99.99,,2013-02-12 08:01:00,
2013-02-12 01:11:00,8.0,1.0,-100.00,West,275,19.0,24.0,70,-99.99,,,-99.99,,2013-02-12 08:11:00,
2013-02-12 01:21:00,9.0,0.0,-100.00,West,265,21.0,25.0,67,-99.99,,,-99.99,,2013-02-12 08:21:00,
2013-02-12 01:31:00,9.0,0.0,-100.00,WSW,255,24.0,32.0,65,-99.99,,,-99.99,,2013-02-12 08:31:00,
2013-02-12 01:41:00,9.0,0.0,-100.00,West,260,24.0,34.0,66,-99.99,,,-99.99,,2013-02-12 08:41:00,
2013-02-12 01:52:00,9.0,0.0,-100.00,West,270,22.0,29.0,68,-99.99,,,-99.99,,2013-02-12 08:52:00,
2013-02-12 02:01:00,8.0,0.0,-100.00,West,280,22.0,27.0,68,-99.99,,,-99.99,,2013-02-12 09:01:00,
2013-02-12 02:11:00,8.0,0.0,-100.00,West,280,21.0,27.0,69,-99.99,,,-99.99,,2013-02-12 09:11:00,
2013-02-12 02:21:00,7.0,0.0,-100.00,WNW,290,17.0,24.0,71,-99.99,,,-99.99,,2013-02-12 09:21:00,
2013-02-12 02:32:00,7.0,0.0,-100.00,WNW,285,17.0,21.0,72,-99.99,,,-99.99,,2013-02-12 09:32:00,
2013-02-12 02:41:00,6.0,-1.0,-100.00,WNW,300,15.0,21.0,72,-99.99,,,-99.99,,2013-02-12 09:41:00,
2013-02-12 02:51:00,6.0,-1.0,-100.00,WNW,300,16.0,20.0,72,-99.99,,,-99.99,,2013-02-12 09:51:00,
2013-02-12 03:01:00,7.0,0.0,-100.00,WNW,285,21.0,27.0,71,-99.99,,,-99.99,,2013-02-12 10:01:00,
2013-02-12 03:11:00,7.0,0.0,-100.00,West,280,20.0,29.0,71,-99.99,,,-99.99,,2013-02-12 10:11:00,
2013-02-12 03:21:00,7.0,0.0,-100.00,West,280,24.0,29.0,71,-99.99,,,-99.99,,2013-02-12 10:21:00,
2013-02-12 03:31:00,8.0,0.0,-100.00,West,270,23.0,32.0,70,-99.99,,,-99.99,,2013-02-12 10:31:00,
2013-02-12 03:43:00,7.0,0.0,-100.00,West,265,25.0,32.0,70,-99.99,,,-99.99,,2013-02-12 10:43:00,
2013-02-12 03:51:00,8.0,0.0,-100.00,West,275,23.0,30.0,70,-99.99,,,-99.99,,2013-02-12 10:51:00,
2013-02-12 04:01:00,8.0,0.0,-100.00,West,265,27.0,34.0,69,-99.99,,,-99.99,,2013-02-12 11:01:00,
2013-02-12 04:11:00,7.0,-1.0,-100.00,West,270,22.0,32.0,68,-99.99,,,-99.99,,2013-02-12 11:11:00,
2013-02-12 04:21:00,8.0,-1.0,-100.00,West,270,23.0,31.0,67,-99.99,,,-99.99,,2013-02-12 11:21:00,
2013-02-12 04:31:00,7.0,-1.0,-100.00,West,265,25.0,32.0,67,-99.99,,,-99.99,,2013-02-12 11:31:00,
2013-02-12 04:41:00,8.0,-1.0,-100.00,West,270,21.0,29.0,66,-99.99,,,-99.99,,2013-02-12 11:41:00,
2013-02-12 04:52:00,8.0,-1.0,-100.00,West,270,21.0,35.0,63,-99.99,,,-99.99,,2013-02-12 11:52:00,
2013-02-12 05:01:00,8.0,-1.0,-100.00,West,265,27.0,34.0,63,-99.99,,,-99.99,,2013-02-12 12:01:00,
2013-02-12 05:11:00,8.0,-1.0,-100.00,West,260,26.0,35.0,63,-99.99,,,-99.99,,2013-02-12 12:11:00,
2013-02-12 05:21:00,8.0,-3.0,-100.00,West,270,19.0,32.0,62,-99.99,,,-99.99,,2013-02-12 12:21:00,
2013-02-12 05:32:00,8.0,-2.0,-100.00,West,270,18.0,26.0,61,-99.99,,,-99.99,,2013-02-12 12:32:00,
2013-02-12 05:42:00,8.0,-3.0,-100.00,West,265,19.0,27.0,60,-99.99,,,-99.99,,2013-02-12 12:42:00,
2013-02-12 05:52:00,9.0,-3.0,-100.00,West,265,22.0,28.0,59,-99.99,,,-99.99,,2013-02-12 12:52:00,
2013-02-12 06:01:00,9.0,-3.0,-100.00,West,265,23.0,28.0,56,-99.99,,,-99.99,,2013-02-12 13:01:00,
2013-02-12 06:11:00,9.0,-4.0,-100.00,West,270,19.0,32.0,55,-99.99,,,-99.99,,2013-02-12 13:11:00,
2013-02-12 06:22:00,9.0,-3.0,-100.00,West,265,26.0,32.0,55,-99.99,,,-99.99,,2013-02-12 13:22:00,
2013-02-12 06:32:00,10.0,-3.0,-100.00,West,275,29.0,35.0,53,-99.99,,,-99.99,,2013-02-12 13:32:00,
2013-02-12 06:42:00,9.0,-5.0,-100.00,WNW,285,22.0,34.0,52,-99.99,,,-99.99,,2013-02-12 13:42:00,
2013-02-12 06:51:00,9.0,-5.0,-100.00,West,270,22.0,31.0,52,-99.99,,,-99.99,,2013-02-12 13:51:00,
2013-02-12 07:01:00,10.0,-4.0,-100.00,West,270,28.0,34.0,52,-99.99,,,-99.99,,2013-02-12 14:01:00,
2013-02-12 07:11:00,10.0,-5.0,-100.00,West,265,22.0,31.0,51,-99.99,,,-99.99,,2013-02-12 14:11:00,
2013-02-12 07:21:00,10.0,-4.0,-100.00,West,265,22.0,32.0,51,-99.99,,,-99.99,,2013-02-12 14:21:00,
2013-02-12 07:32:00,9.0,-5.0,-100.00,WNW,290,16.0,32.0,52,-99.99,,,-99.99,,2013-02-12 14:32:00,
2013-02-12 07:42:00,10.0,-4.0,-100.00,West,265,22.0,29.0,52,-99.99,,,-99.99,,2013-02-12 14:42:00,
2013-02-12 07:52:00,11.0,-3.0,-100.00,West,270,21.0,31.0,51,-99.99,,,-99.99,,2013-02-12 14:52:00,
2013-02-12 08:02:00,11.0,-4.0,-100.00,West,265,22.0,32.0,50,-99.99,,,-99.99,,2013-02-12 15:02:00,
2013-02-12 08:11:00,11.0,-4.0,-100.00,West,280,22.0,32.0,50,-99.99,,,-99.99,,2013-02-12 15:11:00,
2013-02-12 08:21:00,11.0,-3.0,-100.00,West,265,24.0,35.0,50,-99.99,,,-99.99,,2013-02-12 15:21:00,
2013-02-12 08:32:00,12.0,-3.0,-100.00,WNW,285,19.0,35.0,50,-99.99,,,-99.99,,2013-02-12 15:32:00,
2013-02-12 08:52:00,13.0,-2.0,-100.00,WNW,290,22.0,28.0,50,-99.99,,,-99.99,,2013-02-12 15:52:00,
2013-02-12 09:01:00,13.0,-2.0,-100.00,WNW,285,22.0,31.0,49,-99.99,,,-99.99,,2013-02-12 16:01:00,
2013-02-12 09:11:00,13.0,-2.0,-100.00,NW,305,20.0,29.0,49,-99.99,,,-99.99,,2013-02-12 16:11:00,
2013-02-12 09:22:00,14.0,-1.0,-100.00,West,275,22.0,31.0,50,-99.99,,,-99.99,,2013-02-12 16:22:00,
2013-02-12 09:31:00,14.0,-1.0,-100.00,WNW,290,24.0,35.0,51,-99.99,,,-99.99,,2013-02-12 16:31:00,
2013-02-12 09:41:00,14.0,-1.0,-100.00,WNW,285,26.0,30.0,50,-99.99,,,-99.99,,2013-02-12 16:41:00,
2013-02-12 09:51:00,15.0,0.0,-100.00,West,275,27.0,35.0,50,-99.99,,,-99.99,,2013-02-12 16:51:00,
2013-02-12 10:01:00,16.0,0.0,-100.00,WNW,290,24.0,31.0,49,-99.99,,,-99.99,,2013-02-12 17:01:00,
2013-02-12 10:11:00,16.0,1.0,-100.00,WNW,295,21.0,29.0,50,-99.99,,,-99.99,,2013-02-12 17:11:00,
2013-02-12 10:21:00,16.0,1.0,-100.00,WNW,285,22.0,29.0,49,-99.99,,,-99.99,,2013-02-12 17:21:00,
2013-02-12 10:32:00,17.0,1.0,-100.00,WNW,285,20.0,29.0,49,-99.99,,,-99.99,,2013-02-12 17:32:00,
2013-02-12 10:42:00,17.0,2.0,-100.00,WNW,285,18.0,24.0,50,-99.99,,,-99.99,,2013-02-12 17:42:00,
2013-02-12 10:52:00,17.0,2.0,-100.00,WNW,285,21.0,26.0,50,-99.99,,,-99.99,,2013-02-12 17:52:00,
2013-02-12 11:01:00,17.0,2.0,-100.00,WNW,290,21.0,26.0,52,-99.99,,,-99.99,,2013-02-12 18:01:00,
2013-02-12 11:11:00,17.0,3.0,-100.00,WNW,290,22.0,30.0,53,-99.99,,,-99.99,,2013-02-12 18:11:00,
2013-02-12 11:22:00,17.0,3.0,-100.00,West,280,24.0,28.0,52,-99.99,,,-99.99,,2013-02-12 18:22:00,
2013-02-12 11:31:00,18.0,4.0,-100.00,WNW,285,23.0,27.0,53,-99.99,,,-99.99,,2013-02-12 18:31:00,
2013-02-12 11:41:00,18.0,4.0,-100.00,WNW,285,22.0,29.0,52,-99.99,,,-99.99,,2013-02-12 18:41:00,
2013-02-12 11:51:00,18.0,4.0,-100.00,WNW,290,22.0,27.0,52,-99.99,,,-99.99,,2013-02-12 18:51:00,
2013-02-12 12:02:00,19.0,4.0,-100.00,WNW,295,19.0,24.0,52,-99.99,,,-99.99,,2013-02-12 19:02:00,
2013-02-12 12:11:00,19.0,5.0,-100.00,WNW,300,16.0,26.0,52,-99.99,,,-99.99,,2013-02-12 19:11:00,
2013-02-12 12:21:00,19.0,5.0,-100.00,WNW,300,18.0,27.0,52,-99.99,,,-99.99,,2013-02-12 19:21:00,
2013-02-12 12:31:00,19.0,4.0,-100.00,WNW,300,21.0,27.0,51,-99.99,,,-99.99,,2013-02-12 19:31:00,
2013-02-12 12:41:00,20.0,5.0,-100.00,NW,305,16.0,26.0,52,-99.99,,,-99.99,,2013-02-12 19:41:00,
2013-02-12 12:51:00,20.0,6.0,-100.00,WNW,300,14.0,22.0,53,-99.99,,,-99.99,,2013-02-12 19:51:00,
2013-02-12 13:01:00,21.0,6.0,-100.00,WNW,295,18.0,24.0,52,-99.99,,,-99.99,,2013-02-12 20:01:00,
2013-02-12 13:11:00,20.0,6.0,-100.00,WNW,290,20.0,25.0,52,-99.99,,,-99.99,,2013-02-12 20:11:00,
2013-02-12 13:21:00,21.0,6.0,-100.00,West,280,19.0,24.0,51,-99.99,,,-99.99,,2013-02-12 20:21:00,
2013-02-12 13:31:00,20.0,6.0,-100.00,WNW,285,20.0,26.0,51,-99.99,,,-99.99,,2013-02-12 20:31:00,
2013-02-12 13:41:00,20.0,5.0,-100.00,WNW,285,21.0,26.0,51,-99.99,,,-99.99,,2013-02-12 20:41:00,
2013-02-12 13:51:00,20.0,5.0,-100.00,West,280,19.0,28.0,52,-99.99,,,-99.99,,2013-02-12 20:51:00,
2013-02-12 14:01:00,19.0,5.0,-100.00,West,275,23.0,28.0,52,-99.99,,,-99.99,,2013-02-12 21:01:00,
2013-02-12 14:11:00,19.0,5.0,-100.00,West,280,21.0,28.0,52,-99.99,,,-99.99,,2013-02-12 21:11:00,
2013-02-12 14:21:00,20.0,5.0,-100.00,West,280,22.0,29.0,52,-99.99,,,-99.99,,2013-02-12 21:21:00,
2013-02-12 14:31:00,20.0,5.0,-100.00,West,280,21.0,27.0,52,-99.99,,,-99.99,,2013-02-12 21:31:00,
2013-02-12 14:42:00,20.0,6.0,-100.00,West,280,22.0,29.0,54,-99.99,,,-99.99,,2013-02-12 21:42:00,
2013-02-12 14:51:00,20.0,6.0,-100.00,West,280,22.0,29.0,54,-99.99,,,-99.99,,2013-02-12 21:51:00,
2013-02-12 15:01:00,20.0,7.0,-100.00,West,275,21.0,27.0,54,-99.99,,,-99.99,,2013-02-12 22:01:00,
2013-02-12 15:12:00,20.0,6.0,-100.00,WNW,285,23.0,29.0,54,-99.99,,,-99.99,,2013-02-12 22:12:00,
2013-02-12 15:21:00,21.0,7.0,-100.00,West,280,21.0,26.0,53,-99.99,,,-99.99,,2013-02-12 22:21:00,
2013-02-12 15:32:00,22.0,7.0,-100.00,West,280,24.0,30.0,52,-99.99,,,-99.99,,2013-02-12 22:32:00,
2013-02-12 15:41:00,22.0,7.0,-100.00,WNW,285,21.0,29.0,52,-99.99,,,-99.99,,2013-02-12 22:41:00,
2013-02-12 15:51:00,21.0,7.0,-100.00,West,275,24.0,30.0,52,-99.99,,,-99.99,,2013-02-12 22:51:00,
2013-02-12 16:01:00,21.0,7.0,-100.00,West,275,21.0,27.0,52,-99.99,,,-99.99,,2013-02-12 23:01:00,
2013-02-12 16:11:00,21.0,7.0,-100.00,West,270,19.0,28.0,53,-99.99,,,-99.99,,2013-02-12 23:11:00,
2013-02-12 16:21:00,21.0,7.0,-100.00,West,275,21.0,28.0,54,-99.99,,,-99.99,,2013-02-12 23:21:00,
2013-02-12 16:31:00,21.0,7.0,-100.00,WNW,290,24.0,30.0,55,-99.99,,,-99.99,,2013-02-12 23:31:00,
2013-02-12 16:41:00,20.0,7.0,-100.00,West,280,19.0,28.0,56,-99.99,,,-99.99,,2013-02-12 23:41:00,
2013-02-12 16:52:00,20.0,7.0,-100.00,West,280,17.0,24.0,56,-99.99,,,-99.99,,2013-02-12 23:52:00,
2013-02-12 17:02:00,20.0,7.0,-100.00,WNW,285,16.0,24.0,55,-99.99,,,-99.99,,2013-02-13 00:02:00,
2013-02-12 17:11:00,19.0,7.0,-100.00,WNW,285,12.0,19.0,57,-99.99,,,-99.99,,2013-02-13 00:11:00,
2013-02-12 17:21:00,19.0,7.0,-100.00,WNW,285,11.0,19.0,57,-99.99,,,-99.99,,2013-02-13 00:21:00,
2013-02-12 17:32:00,19.0,8.0,-100.00,WNW,290,12.0,15.0,60,-99.99,,,-99.99,,2013-02-13 00:32:00,
2013-02-12 17:42:00,19.0,8.0,-100.00,WNW,295,13.0,17.0,60,-99.99,,,-99.99,,2013-02-13 00:42:00,
2013-02-12 17:51:00,18.0,8.0,-100.00,NW,310,11.0,16.0,61,-99.99,,,-99.99,,2013-02-13 00:51:00,
2013-02-12 18:01:00,18.0,7.0,-100.00,WNW,295,13.0,16.0,61,-99.99,,,-99.99,,2013-02-13 01:01:00,
2013-02-12 18:11:00,18.0,7.0,-100.00,NW,305,10.0,17.0,59,-99.99,,,-99.99,,2013-02-13 01:11:00,
2013-02-12 18:21:00,17.0,7.0,-100.00,NW,315,11.0,13.0,63,-99.99,,,-99.99,,2013-02-13 01:21:00,
2013-02-12 18:31:00,16.0,7.0,-100.00,NW,315,11.0,13.0,66,-99.99,,,-99.99,,2013-02-13 01:31:00,
2013-02-12 18:42:00,16.0,7.0,-100.00,NW,310,9.0,15.0,67,-99.99,,,-99.99,,2013-02-13 01:42:00,
2013-02-12 18:51:00,16.0,6.0,-100.00,NW,305,9.0,12.0,65,-99.99,,,-99.99,,2013-02-13 01:51:00,
2013-02-12 19:01:00,17.0,7.0,-100.00,WNW,285,14.0,17.0,63,-99.99,,,-99.99,,2013-02-13 02:01:00,
2013-02-12 19:11:00,17.0,6.0,-100.00,WNW,285,15.0,21.0,61,-99.99,,,-99.99,,2013-02-13 02:11:00,
2013-02-12 19:21:00,16.0,6.0,-100.00,WNW,290,16.0,22.0,62,-99.99,,,-99.99,,2013-02-13 02:21:00,
2013-02-12 19:31:00,15.0,5.0,-100.00,WNW,295,18.0,23.0,64,-99.99,,,-99.99,,2013-02-13 02:31:00,
2013-02-12 19:41:00,15.0,5.0,-100.00,WNW,285,20.0,23.0,65,-99.99,,,-99.99,,2013-02-13 02:41:00,
2013-02-12 19:52:00,14.0,5.0,-100.00,WNW,290,17.0,24.0,67,-99.99,,,-99.99,,2013-02-13 02:52:00,
2013-02-12 20:01:00,13.0,5.0,-100.00,West,280,20.0,24.0,68,-99.99,,,-99.99,,2013-02-13 03:01:00,
2013-02-12 20:11:00,13.0,5.0,-100.00,West,280,21.0,27.0,68,-99.99,,,-99.99,,2013-02-13 03:11:00,
2013-02-12 20:21:00,14.0,5.0,-100.00,WNW,285,21.0,25.0,68,-99.99,,,-99.99,,2013-02-13 03:21:00,
2013-02-12 20:32:00,13.0,5.0,-100.00,West,280,18.0,24.0,68,-99.99,,,-99.99,,2013-02-13 03:32:00,
2013-02-12 20:41:00,14.0,5.0,-100.00,WNW,285,17.0,26.0,67,-99.99,,,-99.99,,2013-02-13 03:41:00,
2013-02-12 20:51:00,14.0,5.0,-100.00,West,280,15.0,22.0,67,-99.99,,,-99.99,,2013-02-13 03:51:00,
2013-02-12 21:01:00,13.0,4.0,-100.00,West,280,14.0,20.0,67,-99.99,,,-99.99,,2013-02-13 04:01:00,
2013-02-12 21:11:00,14.0,5.0,-100.00,West,275,18.0,21.0,68,-99.99,,,-99.99,,2013-02-13 04:11:00,
2013-02-12 21:21:00,14.0,6.0,-100.00,West,280,21.0,26.0,67,-99.99,,,-99.99,,2013-02-13 04:21:00,
2013-02-12 21:31:00,14.0,6.0,-100.00,West,280,22.0,27.0,67,-99.99,,,-99.99,,2013-02-13 04:31:00,
2013-02-12 21:41:00,15.0,6.0,-100.00,West,280,21.0,34.0,66,-99.99,,,-99.99,,2013-02-13 04:41:00,
2013-02-12 21:51:00,15.0,6.0,-100.00,West,265,26.0,36.0,67,-99.99,,,-99.99,,2013-02-13 04:51:00,
2013-02-12 22:01:00,15.0,6.0,-100.00,West,270,24.0,33.0,67,-99.99,,,-99.99,,2013-02-13 05:01:00,
2013-02-12 22:11:00,15.0,7.0,-100.00,West,275,24.0,32.0,67,-99.99,,,-99.99,,2013-02-13 05:11:00,
2013-02-12 22:22:00,16.0,8.0,-100.00,West,275,27.0,37.0,69,-99.99,,,-99.99,,2013-02-13 05:22:00,
2013-02-12 22:31:00,16.0,8.0,-100.00,West,270,32.0,39.0,69,-99.99,,,-99.99,,2013-02-13 05:31:00,
2013-02-12 22:41:00,15.0,8.0,-100.00,West,280,33.0,42.0,71,-99.99,,,-99.99,,2013-02-13 05:41:00,
2013-02-12 22:52:00,16.0,8.0,-100.00,West,280,36.0,44.0,71,-99.99,,,-99.99,,2013-02-13 05:52:00,
2013-02-12 23:02:00,16.0,8.0,-100.00,West,275,34.0,44.0,70,-99.99,,,-99.99,,2013-02-13 06:02:00,
2013-02-12 23:11:00,16.0,8.0,-100.00,West,280,34.0,44.0,69,-99.99,,,-99.99,,2013-02-13 06:11:00,
2013-02-12 23:21:00,16.0,8.0,-100.00,WNW,285,30.0,39.0,69,-99.99,,,-99.99,,2013-02-13 06:21:00,
2013-02-12 23:32:00,16.0,8.0,-100.00,West,265,32.0,42.0,69,-99.99,,,-99.99,,2013-02-13 06:32:00,
2013-02-12 23:42:00,17.0,9.0,-100.00,West,280,27.0,42.0,69,-99.99,,,-99.99,,2013-02-13 06:42:00,
2013-02-12 23:51:00,17.0,9.0,-100.00,West,265,27.0,39.0,69,-99.99,,,-99.99,,2013-02-13 06:51:00,